Regional Weather Roundup
Issued by NWS

Home | Current Version | Previous Version | Graphics & Text | Print | Product List | Glossary Off
Versions: 1 2 3 4 5 6 7 8 9 10 11 12 13 14 15 16 17 18 19 20 21 22 23 24 25 26 27 28 29 30 31 32 33 34 35 36 37 38 39 40 41 42 43 44 45 46 47 48 49 50

000
ASUS43 KDMX 252001
RWRIA

WEATHER ROUNDUP FOR IOWA
NATIONAL WEATHER SERVICE DES MOINES IA
300 PM CDT SUN JUN 25 2017

NOTE: "FAIR" INDICATES FEW OR NO CLOUDS BELOW 12,000 FEET WITH NO
SIGNIFICANT WEATHER AND/OR OBSTRUCTIONS TO VISIBILITY.

* - THESE STATIONS ARE NOT NWS STATIONS...THUS NOT UNDER NWS
QUALITY CONTROL.  THEY ALSO DO NOT REPORT WEATHER SUCH
AS PRECIPITATION OR FOG.

IAZ001>003-012>014-020>022-031>034-043>046-252100-
   NORTHWEST IOWA

CITY           SKY/WX    TMP DP  RH WIND       PRES   REMARKS
CARROLL *      SUNNY     72  43  35 N14G24    30.23F
CHEROKEE *     SUNNY     69  43  38 NW10G20   30.24F
DENISON *      SUNNY     72  41  33 NW14      30.26F
LE MARS *      SUNNY     72  41  33 N14G20    30.25F
ORANGE CITY *  SUNNY     70  43  37 NW12G21   30.25F
SHELDON *      MOSUNNY   70  41  35 NW16G23   30.23F
SIOUX CITY     SUNNY     73  42  32 NW10      30.25F
SPENCER        MOSUNNY   70  41  34 NW15G23   30.23F
STORM LAKE *     N/A     70  41  35 NW16G23   30.24F
$$

IAZ055>058-069>071-079>083-090>094-252100-
   SOUTHWEST IOWA

CITY           SKY/WX    TMP DP  RH WIND       PRES   REMARKS
ATLANTIC *     SUNNY     72  43  35 NW13G24   30.25F
AUDUBON *      SUNNY     72  41  33 NW10G21   30.26F
CLARINDA *     SUNNY     72  46  40 N7G15     30.29F
COUNCIL BLFS * SUNNY     73  43  33 N8G16     30.27S
CRESTON *      SUNNY     70  43  37 NW17      30.27F
HARLAN  *      SUNNY     70  43  37 W7G21     30.29F
LAMONI         SUNNY     72  45  37 NW16G25   30.25F
RED OAK *      SUNNY     72  46  40 NW8       30.27F
SHENANDOAH *   SUNNY     72  45  37 W7G16     30.28F
$$

IAZ047>049-059>061-072>074-084-252100-
   CENTRAL IOWA

CITY           SKY/WX    TMP DP  RH WIND       PRES   REMARKS
AMES           MOSUNNY   73  43  33 NW17G26   30.21F
ANKENY *       MOSUNNY   70  43  37 NW13G25   30.23S
BOONE *        MOSUNNY   70  43  37 NW16G28   30.21F
CHARITON *     SUNNY     72  43  35 NW13G24   30.23F
DES MOINES     MOSUNNY   73  43  33 NW16G23   30.22F
GRINNELL*      MOSUNNY   70  41  34 NW18G24   30.21F
KNOXVILLE *    MOSUNNY   70  43  37 NW20      30.21F
MARSHALLTOWN   SUNNY     70  44  39 NW17G25   30.19F
NEWTON *       SUNNY     70  41  35 NW18G26   30.21F
PELLA *        SUNNY     72  41  33 W13G20    30.22F
PERRY *          N/A     71  40  31 NW12G22   30.23F
$$

IAZ004>006-015-016-023>025-035-036-252100-
   NORTH CENTRAL IOWA

CITY           SKY/WX    TMP DP  RH WIND       PRES   REMARKS
ALGONA *       MOSUNNY   70  39  32 NW18G28   30.21F
CLARION *        N/A     70  41  35 NW20G29   30.20F
ESTHERVILLE    MOSUNNY   67  43  41 NW18G30   30.22F
FORT DODGE *   MOSUNNY   70  43  37 NW14G22   30.23S
MASON CITY     MOSUNNY   69  41  36 NW21G29   30.20F
FOREST CITY *    N/A     70  28  21 NW13G25   30.19F
WEBSTER CITY * MOSUNNY   70  43  37 NW15G30   30.19F
IOWA FALLS *     N/A     70  41  35 NW17G32   30.21F
$$

IAZ007>011-017>019-026>030-037>042-050>054-066-252100-
   NORTHEAST IOWA

CITY           SKY/WX    TMP DP  RH WIND       PRES   REMARKS
CEDAR RAPIDS   PTSUNNY   69  50  50 NW18G25   30.17F
CHARLES CITY * PTSUNNY   66  46  48 NW15G24   30.18S
CLINTON *      PTSUNNY   66  51  58 NW20      30.16F
DECORAH *        N/A     59  50  72 VRB7G15   30.15F
DUBUQUE        CLOUDY    61  49  64 NW15      30.17F
MONTICELLO *   CLOUDY    64  50  59 W15G22    30.16F
OELWEIN *      CLOUDY    63  50  63 NW13G21   30.18F
WATERLOO       PTSUNNY   66  46  48 W16G23    30.16F
$$

IAZ064-065-067-068-078-252100-
   EAST CENTRAL IOWA

CITY           SKY/WX    TMP DP  RH WIND       PRES   REMARKS
DAVENPORT      CLOUDY    67  49  52 NW18      30.17F
IOWA CITY      PTSUNNY   70  49  47 NW14G21   30.19F
MT. PLEASANT * MOSUNNY   73  45  36 W10G21    30.19F
MUSCATINE *    MOSUNNY   72  46  40 NW17G24   30.18S
QUAD CITIES    CLOUDY    68  48  48 NW18      30.16F
$$

IAZ062-063-075>077-085>089-095>099-252100-
   SOUTHEAST IOWA

CITY           SKY/WX    TMP DP  RH WIND       PRES   REMARKS
BURLINGTON     MOSUNNY   73  48  41 NW12G20   30.18F
FAIRFIELD *    PTSUNNY   73  43  33 NW17G24   30.19F
FORT MADISON * MOSUNNY   73  46  38 NW12G21   30.20S
KEOKUK *       PTSUNNY   72  46  40 NW8G20    30.20S
OSKALOOSA *    PTSUNNY   72  43  35 NW13G23   30.21F
OTTUMWA        PTSUNNY   74  44  34 NW15G26   30.21S
WASHINGTON *   MOSUNNY   72  46  40 W18G25    30.20S
$$

ABBREVIATIONS USED IN REMARKS
   TC - TEMPERATURES IN CELSIUS
  WCI - WIND CHILL INDEX
   HX - HEAT INDEX
  VSB - VISIBILITY
$$





USA.gov is the U.S. government's official web portal to all federal, state and local government web resources and services.